This is the latest recevied weather packets stored in our database for station/object OE3MHU-13. If no packets are shown the sender has not sent any weather packets the latest 10 day(s).
| Time | Temp. | Humidity | Pressure | Rain* | Wind** | Luminosity | Snow |
|---|---|---|---|---|---|---|---|
| 1777545148 | 14.44° C | 35% | 1031.6 hPa | 0 mm | - | - | - |
| 1777544842 | 14.44° C | 35% | 1031.7 hPa | 0 mm | - | - | - |
| 1777544536 | 13.89° C | 35% | 1032 hPa | 0 mm | - | - | - |
| 1777544230 | 13.89° C | 33% | 1032 hPa | 0 mm | - | - | - |
| 1777543925 | 13.33° C | 34% | 1031.9 hPa | 0 mm | - | - | - |
| 1777543618 | 13.33° C | 36% | 1032 hPa | 0 mm | - | - | - |
| 1777543315 | 12.78° C | 36% | 1032 hPa | 0 mm | - | - | - |
| 1777543006 | 12.78° C | 36% | 1031.9 hPa | 0 mm | - | - | - |
| 1777542700 | 12.78° C | 35% | 1031.9 hPa | 0 mm | - | - | - |
| 1777542394 | 12.22° C | 35% | 1031.9 hPa | 0 mm | - | - | - |
| 1777542089 | 13.33° C | 35% | 1032 hPa | 0 mm | - | - | - |
| 1777541783 | 12.78° C | 35% | 1032 hPa | 0 mm | - | - | - |
| 1777541477 | 12.78° C | 36% | 1032 hPa | 0 mm | - | - | - |
| 1777541170 | 12.78° C | 36% | 1032.1 hPa | 0 mm | - | - | - |
| 1777540864 | 12.22° C | 38% | 1032.3 hPa | 0 mm | - | - | - |
| 1777540558 | 12.78° C | 39% | 1032.2 hPa | 0 mm | - | - | - |
| 1777540543 | 12.22° C | 37% | 1032.2 hPa | 0 mm | - | - | - |
| 1777539955 | 12.22° C | 38% | 1032.3 hPa | 0 mm | - | - | - |
| 1777539658 | 11.67° C | 39% | 1032.4 hPa | 0 mm | - | - | - |
| 1777539482 | 11.67° C | 39% | 1032.3 hPa | 0 mm | - | - | - |
| 1777539472 | 11.67° C | 39% | 1032.2 hPa | 0 mm | - | - | - |
| 1777538753 | 11.67° C | 39% | 1032.2 hPa | 0 mm | - | - | - |
| 1777538451 | 11.67° C | 39% | 1032.4 hPa | 0 mm | - | - | - |
| 1777538151 | 11.67° C | 39% | 1032.4 hPa | 0 mm | - | - | - |
| 1777537851 | 11.67° C | 39% | 1032.5 hPa | 0 mm | - | - | - |
* Rain latest hour (hover to see other rain measurements)
** Current wind speed in m/s (hover to see current wind gust speed)